Location: Hokitika
(42.7170°S, 170.9670°E)
Time: 09:04:23
(UTC+13:00)

SJ-6B - Visible Passes

Search period start: 16 October 2019 00:00
Search period end: 26 October 2019 00:00
Orbit: 509 x 583 km, 97.6° (Epoch: 15 October)

Date Brightness Start Highest point End Pass type
(mag) Time Alt. Az. Time Alt. Az. Time Alt. Az.
16 Oct 2.8 22:10:10 10° SSE 22:14:16 79° ESE 22:14:16 79° ESE visible
16 Oct 6.1 23:47:45 10° SW 23:48:21 10° WSW 23:48:58 10° WSW visible
17 Oct 2.8 22:04:43 10° SSE 22:08:52 70° E 22:08:52 70° E visible
17 Oct 5.9 23:41:26 10° SW 23:42:57 12° WSW 23:44:27 10° W visible
18 Oct 2.9 21:59:16 10° SSE 22:03:26 60° E 22:03:27 60° ENE visible
18 Oct 5.8 23:35:31 10° SSW 23:37:32 13° WSW 23:39:05 11° W visible
19 Oct 3.0 21:53:50 10° SSE 21:57:57 51° E 21:58:02 51° ENE visible
19 Oct 5.7 23:29:44 10° SSW 23:32:07 15° WSW 23:33:41 13° W visible
20 Oct 3.2 21:48:25 10° SSE 21:52:27 44° E 21:52:37 44° ENE visible
20 Oct 5.5 23:24:00 10° SSW 23:26:42 17° WSW 23:28:16 14° W visible
21 Oct 3.4 21:43:01 10° SSE 21:46:56 38° E 21:47:12 38° ENE visible
21 Oct 5.4 23:18:19 10° SSW 23:21:16 19° WSW 23:22:51 16° W visible
22 Oct 3.6 21:37:38 10° SSE 21:41:25 33° E 21:41:46 32° ENE visible
22 Oct 5.2 23:12:40 10° SSW 23:15:51 21° WSW 23:17:25 17° W visible
23 Oct 3.8 21:32:16 10° SE 21:35:54 29° E 21:36:21 28° ENE visible
23 Oct 5.1 23:07:01 10° SSW 23:10:24 24° WSW 23:11:59 19° W visible
24 Oct 4.0 21:26:56 10° SE 21:30:22 25° E 21:30:55 24° ENE visible
24 Oct 4.8 23:01:25 10° S 23:04:58 27° WSW 23:06:33 21° WNW visible
25 Oct 4.1 21:21:36 10° SE 21:24:50 22° E 21:25:28 21° ENE visible
25 Oct 4.6 22:55:50 10° S 22:59:30 31° WSW 23:01:06 23° WNW visible
